CFG3ZM LGIR-EDDL

Flight info

Callsign CFG3ZM
Flight time N/A
Altitude 34000
Route EPALO1V EPALO M749 DIRMI UL613 YNN UL604 DIMIS/N0453F360 DCT RETRA DCT PETOV DCT LAMSI L604 RODIS DCT TESDU DCT AMETU T852 TINSA T854 DOMUX DOMUX1A
Aircraft A320/M-SDE3FGHIJ1LORVWXYZ/S

Departure

Time N/A
Airport Heraklion International Nikos Kazantzakis Airport (LGIR)

Arrival

Time 2026-04-30 18:27
Airport Düsseldorf Airport (EDDL)
Time Latitude Longitude Altitude Speed Heading
2026-04-30 14:51 35.33768 25.17416 91 ft 0 kts 275°
2026-04-30 15:14 35.33772 25.17387 94 ft 5 kts 288°
2026-04-30 15:16 35.33906 25.17596 91 ft 11 kts 95°
2026-04-30 15:17 35.33853 25.18353 92 ft 25 kts 95°
2026-04-30 15:18 35.33905 25.19024 91 ft 6 kts 323°
2026-04-30 15:19 35.33910 25.18966 91 ft 18 kts 274°
2026-04-30 17:39 48.90083 13.07389 36410 ft 459 kts 316°
2026-04-30 17:42 49.09793 12.69279 36421 ft 458 kts 315°
2026-04-30 17:43 49.19484 12.49968 36414 ft 459 kts 315°
2026-04-30 17:44 49.31066 12.26697 36408 ft 459 kts 314°
2026-04-30 17:47 49.48436 11.91460 36440 ft 460 kts 314°
2026-04-30 17:48 49.61861 11.63883 36417 ft 461 kts 313°
2026-04-30 17:50 49.77147 11.32127 36399 ft 461 kts 313°
2026-04-30 17:52 49.88567 11.08165 36398 ft 461 kts 312°
2026-04-30 17:54 50.05562 10.72075 36397 ft 461 kts 311°
2026-04-30 17:56 50.20608 10.39734 36387 ft 462 kts 311°
2026-04-30 17:58 50.31674 10.15086 36383 ft 463 kts 309°
2026-04-30 18:00 50.46301 9.81839 36384 ft 464 kts 309°
2026-04-30 18:01 50.55397 9.61012 36379 ft 464 kts 308°
2026-04-30 18:02 50.66232 9.35927 34698 ft 462 kts 308°
2026-04-30 18:03 50.71568 9.23492 32392 ft 457 kts 307°
2026-04-30 18:04 50.76917 9.10966 29937 ft 456 kts 307°
2026-04-30 18:05 50.82329 8.93361 27215 ft 448 kts 287°
2026-04-30 18:06 50.85422 8.74515 24790 ft 437 kts 287°
2026-04-30 18:07 50.88406 8.56190 22487 ft 425 kts 287°
2026-04-30 18:08 50.90588 8.42762 20963 ft 414 kts 286°
2026-04-30 18:09 50.93377 8.25398 19042 ft 402 kts 286°
2026-04-30 18:10 50.96071 8.08447 17032 ft 391 kts 286°
2026-04-30 18:11 50.98668 7.91924 15112 ft 381 kts 285°
2026-04-30 18:11 51.00555 7.79839 13726 ft 374 kts 285°
2026-04-30 18:12 51.02402 7.67928 12181 ft 367 kts 284°
2026-04-30 18:13 51.03607 7.60134 11180 ft 363 kts 284°
2026-04-30 18:13 51.05192 7.49790 10313 ft 352 kts 283°
2026-04-30 18:14 51.06455 7.41485 10183 ft 318 kts 283°
2026-04-30 18:15 51.07984 7.31332 9778 ft 313 kts 283°
2026-04-30 18:15 51.09489 7.21313 9385 ft 310 kts 283°
2026-04-30 18:16 51.10479 7.14640 9124 ft 309 kts 283°
2026-04-30 18:16 51.11468 7.07986 8873 ft 309 kts 282°
2026-04-30 18:17 51.11964 7.04679 8590 ft 306 kts 282°
2026-04-30 18:17 51.12455 7.01396 8178 ft 304 kts 282°
2026-04-30 18:17 51.13418 6.94869 7376 ft 301 kts 282°
2026-04-30 18:18 51.13889 6.91676 6997 ft 300 kts 282°
2026-04-30 18:18 51.14362 6.88457 6600 ft 298 kts 282°
2026-04-30 18:18 51.14831 6.85247 6201 ft 296 kts 281°
2026-04-30 18:18 51.15292 6.82074 5793 ft 294 kts 281°
2026-04-30 18:19 51.15752 6.78916 5389 ft 292 kts 281°
2026-04-30 18:19 51.16024 6.75755 4990 ft 285 kts 265°
2026-04-30 18:19 51.15735 6.72678 4559 ft 278 kts 248°
2026-04-30 18:19 51.14944 6.69927 4196 ft 269 kts 232°
2026-04-30 18:20 51.13866 6.67613 3950 ft 260 kts 227°
2026-04-30 18:20 51.12802 6.65389 3692 ft 253 kts 227°
2026-04-30 18:20 51.11736 6.63166 3457 ft 246 kts 226°
2026-04-30 18:20 51.10749 6.60959 3195 ft 246 kts 238°
2026-04-30 18:21 51.10401 6.58308 3020 ft 248 kts 273°
2026-04-30 18:21 51.10933 6.55804 2989 ft 233 kts 309°
2026-04-30 18:21 51.12012 6.53960 3010 ft 224 kts 321°
2026-04-30 18:21 51.13224 6.52468 2994 ft 216 kts 340°
2026-04-30 18:22 51.14607 6.51771 3016 ft 208 kts
2026-04-30 18:22 51.17284 6.52580 3003 ft 191 kts 37°
2026-04-30 18:22 51.18283 6.53854 3042 ft 180 kts 54°
2026-04-30 18:23 51.19038 6.55393 3013 ft 175 kts 59°
2026-04-30 18:23 51.19783 6.56942 2905 ft 175 kts 59°
2026-04-30 18:23 51.20525 6.58487 2715 ft 176 kts 58°
2026-04-30 18:23 51.21266 6.60028 2492 ft 174 kts 58°
2026-04-30 18:24 51.22702 6.63016 2044 ft 156 kts 58°
2026-04-30 18:24 51.23315 6.64292 1849 ft 139 kts 59°
2026-04-30 18:24 51.23889 6.65491 1661 ft 133 kts 59°
2026-04-30 18:25 51.24443 6.66652 1482 ft 131 kts 59°
2026-04-30 18:25 51.25536 6.68942 1118 ft 129 kts 58°
2026-04-30 18:25 51.26083 6.70082 955 ft 128 kts 57°
2026-04-30 18:26 51.27181 6.72371 606 ft 130 kts 56°
2026-04-30 18:26 51.27726 6.73518 462 ft 130 kts 59°
2026-04-30 18:26 51.28272 6.74666 243 ft 128 kts 57°
2026-04-30 18:27 51.29192 6.76596 132 ft 71 kts 53°
2026-04-30 18:27 51.29420 6.77076 131 ft 47 kts 52°
2026-04-30 18:28 51.29587 6.77690 128 ft 19 kts 103°
2026-04-30 18:28 51.29532 6.77852 133 ft 15 kts 130°
2026-04-30 18:28 51.29345 6.78083 140 ft 19 kts 142°
2026-04-30 18:29 51.29228 6.78220 137 ft 22 kts 158°
2026-04-30 18:29 51.28923 6.77703 130 ft 13 kts 207°
2026-04-30 18:30 51.28758 6.77863 128 ft 14 kts 159°
2026-04-30 18:30 51.28665 6.77662 129 ft 11 kts 283°
2026-04-30 18:31 51.28639 6.77562 125 ft 10 kts 233°
2026-04-30 18:31 51.28591 6.77463 127 ft 5 kts 233°
2026-04-30 18:32 51.28514 6.77290 125 ft 10 kts 233°
2026-04-30 18:32 51.28520 6.77228 125 ft 8 kts 318°
2026-04-30 18:32 51.28545 6.77197 128 ft 0 kts 322°